Hourly Data Report for December 07, 2002

TORONTO CITY
ONTARIO

43°40'00.000" N
79°24'00.000" W
112.50 m
6158355
71508
XTO

Download Data

Hourly Data (December 2002)
Hourly Data Report for December 7, 2002
TIME
LST
Temp Definition
°C
Dew Point Definition
°C
Rel Hum Definition
%
Precip. Amount Definition
mm

Wind Dir Definition
10's deg

Wind Spd Definition
km/h
Visibility Definition
km
Stn Press Definition
kPa
Hmdx Definition


Wind Chill Definition


Weather Definition


00:00 -3.3 -7.5 73   LegendMM LegendMM LegendMM 100.21     LegendNANA
01:00 -2.4 -6.3 75   LegendMM LegendMM LegendMM 100.13     LegendNANA
02:00 -1.0 -5.1 74   LegendMM LegendMM LegendMM 100.08     LegendNANA
03:00 -0.8 -4.9 74   LegendMM LegendMM LegendMM 100.06     LegendNANA
04:00 -0.6 -4.7 74   LegendMM LegendMM LegendMM 99.95     LegendNANA
05:00 -0.1 -4.1 74   LegendMM LegendMM LegendMM 99.85     LegendNANA
06:00 -0.1 -4.3 73   LegendMM LegendMM LegendMM 99.90     LegendNANA
07:00 0.2 -4.0 73   LegendMM LegendMM LegendMM 99.88     LegendNANA
08:00 0.6 -3.4 75   LegendMM LegendMM LegendMM 99.85     LegendNANA
09:00 1.1 -3.1 74   LegendMM LegendMM LegendMM 99.86     LegendNANA
10:00 0.9 -3.7 71   LegendMM LegendMM LegendMM 99.89     LegendNANA
11:00 0.7 -3.9 71   LegendMM LegendMM LegendMM 99.90     LegendNANA
12:00 0.8 -3.6 72   LegendMM LegendMM LegendMM 99.84     LegendNANA
13:00 1.2 -3.6 70   LegendMM LegendMM LegendMM 99.77     LegendNANA
14:00 1.3 -3.1 72   LegendMM LegendMM LegendMM 99.78     LegendNANA
15:00 1.2 -3.4 71   LegendMM LegendMM LegendMM 99.81     LegendNANA
16:00 1.3 -3.3 71   LegendMM LegendMM LegendMM 99.82     LegendNANA
17:00 1.2 -3.0 74   LegendMM LegendMM LegendMM 99.87     LegendNANA
18:00 1.2 -2.8 75   LegendMM LegendMM LegendMM 99.92     LegendNANA
19:00 1.2 -2.6 76   LegendMM LegendMM LegendMM 99.95     LegendNANA
20:00 1.3 -2.4 76   LegendMM LegendMM LegendMM 99.98     LegendNANA
21:00 1.3 -2.5 76   LegendMM LegendMM LegendMM 99.95     LegendNANA
22:00 1.4 -2.6 75   LegendMM LegendMM LegendMM 99.96     LegendNANA
23:00 1.5 -2.5 75   LegendMM LegendMM LegendMM 99.92     LegendNANA

Notes on Data Quality.

Legend

  • E = Estimated
  • M = Missing
  • NA = Not Available*
  • [empty] = Indicates an unobserved value
Date modified: